| time (UTC) | temp C | wind direction | speed KPH | gust KPH | rain 1hr cm | rain 24hr cm | rain mn cm | humidity % | barometer mb |
| 20260509150220 | 18 | 263 | 4.8 | 14.5 | 0.00 | 0.00 | 0.00 | 62 | 1010.3 |
| 20260509145710 | 18 | 238 | 3.2 | 12.9 | 0.00 | 0.00 | 0.00 | 62 | 1010.4 |
| 20260509145205 | 18 | 163 | 3.2 | 12.9 | 0.00 | 0.00 | 0.00 | 64 | 1010.4 |
| 20260509144658 | 18 | 163 | 3.2 | 12.9 | 0.00 | 0.00 | 0.00 | 67 | 1010.6 |
| 20260509144153 | 18 | 126 | 3.2 | 12.9 | 0.00 | 0.00 | 0.00 | 65 | 1010.4 |
| 20260509143905 | 17 | 285 | 3.2 | 11.3 | 0.00 | 0.00 | 0.00 | 64 | 1010.6 |
| 20260509143140 | 17 | 123 | 3.2 | 14.5 | 0.00 | 0.00 | 0.00 | 66 | 1010.7 |
| 20260509142634 | 17 | 152 | 3.2 | 14.5 | 0.00 | 0.00 | 0.00 | 68 | 1010.9 |
| 20260509142129 | 17 | 240 | 3.2 | 8.0 | 0.00 | 0.00 | 0.00 | 67 | 1010.9 |
| 20260509141623 | 17 | 192 | 3.2 | 12.9 | 0.00 | 0.00 | 0.00 | 67 | 1011.0 |
| 20260509141116 | 16 | 183 | 3.2 | 12.9 | 0.00 | 0.00 | 0.00 | 68 | 1011.0 |
| 20260509140610 | 16 | 244 | 3.2 | 14.5 | 0.00 | 0.00 | 0.00 | 66 | 1010.9 |
| 20260509140104 | 16 | 335 | 3.2 | 14.5 | 0.00 | 0.00 | 0.00 | 68 | 1010.9 |
| 20260509140046 | 16 | 236 | 3.2 | 9.7 | 0.00 | 0.00 | 0.00 | 68 | 1011.0 |
| 20260509135052 | 16 | 54 | 3.2 | 14.5 | 0.00 | 0.00 | 0.00 | 69 | 1011.1 |
| 20260509134547 | 15 | 355 | 3.2 | 14.5 | 0.00 | 0.00 | 0.00 | 67 | 1011.1 |
| 20260509134040 | 15 | 324 | 1.6 | 9.7 | 0.00 | 0.00 | 0.00 | 69 | 1011.1 |
| 20260509133534 | 15 | 218 | 3.2 | 9.7 | 0.00 | 0.00 | 0.00 | 68 | 1011.1 |
| 20260509133028 | 15 | 142 | 1.6 | 6.4 | 0.00 | 0.00 | 0.00 | 69 | 1011.1 |
| 20260509132522 | 15 | 64 | 1.6 | 6.4 | 0.00 | 0.00 | 0.00 | 70 | 1011.1 |
| 20260509132016 | 15 | 155 | 1.6 | 6.4 | 0.00 | 0.00 | 0.00 | 70 | 1011.1 |
| 20260509131510 | 15 | 115 | 3.2 | 11.3 | 0.00 | 0.00 | 0.00 | 71 | 1011.2 |
| 20260509131004 | 15 | 232 | 1.6 | 11.3 | 0.00 | 0.00 | 0.00 | 72 | 1011.3 |
| 20260509130457 | 15 | 120 | 1.6 | 6.4 | 0.00 | 0.00 | 0.00 | 71 | 1011.3 |
| 20260509130218 | 14 | 123 | 1.6 | 4.8 | 0.00 | 0.00 | 0.00 | 71 | 1011.3 |
| 20260509125446 | 14 | 44 | 1.6 | 12.9 | 0.00 | 0.00 | 0.00 | 71 | 1011.3 |
| 20260509124940 | 14 | 217 | 3.2 | 12.9 | 0.00 | 0.00 | 0.00 | 70 | 1011.3 |
| 20260509124656 | 14 | 274 | 1.6 | 9.7 | 0.00 | 0.00 | 0.00 | 71 | 1011.3 |
| 20260509123929 | 14 | 204 | 1.6 | 4.8 | 0.00 | 0.00 | 0.00 | 70 | 1011.3 |
| 20260509123422 | 14 | 113 | 1.6 | 9.7 | 0.00 | 0.00 | 0.00 | 73 | 1011.4 |
| 20260509123134 | 13 | 247 | 1.6 | 9.7 | 0.00 | 0.00 | 0.00 | 71 | 1011.3 |
| 20260509122410 | 13 | 186 | 1.6 | 8.0 | 0.00 | 0.00 | 0.00 | 71 | 1011.3 |
| 20260509121905 | 13 | 249 | 3.2 | 9.7 | 0.00 | 0.00 | 0.00 | 71 | 1011.3 |
| 20260509121357 | 13 | 159 | 3.2 | 9.7 | 0.00 | 0.00 | 0.00 | 69 | 1011.3 |
| 20260509120853 | 13 | 349 | 1.6 | 6.4 | 0.00 | 0.00 | 0.00 | 70 | 1011.3 |
| 20260509120346 | 13 | 150 | 1.6 | 6.4 | 0.00 | 0.00 | 0.00 | 70 | 1011.3 |
| 20260509115840 | 13 | 208 | 1.6 | 6.4 | 0.00 | 0.00 | 0.00 | 70 | 1011.3 |
| 20260509115334 | 13 | 333 | 1.6 | 6.4 | 0.00 | 0.00 | 0.00 | 69 | 1011.2 |
| 20260509114827 | 13 | 179 | 1.6 | 11.3 | 0.00 | 0.00 | 0.00 | 69 | 1011.1 |
| 20260509114322 | 13 | 224 | 3.2 | 11.3 | 0.00 | 0.00 | 0.00 | 68 | 1011.0 |
| 20260509113815 | 13 | 208 | 1.6 | 4.8 | 0.00 | 0.00 | 0.00 | 69 | 1011.0 |
| 20260509113309 | 13 | 149 | 1.6 | 6.4 | 0.00 | 0.00 | 0.00 | 68 | 1010.9 |
| 20260509112805 | 13 | 141 | 1.6 | 6.4 | 0.00 | 0.00 | 0.00 | 68 | 1011.0 |
| 20260509112306 | 13 | 137 | 1.6 | 6.4 | 0.00 | 0.00 | 0.00 | 67 | 1011.0 |
| 20260509111801 | 13 | 121 | 1.6 | 6.4 | 0.00 | 0.00 | 0.00 | 67 | 1011.0 |
| 20260509111301 | 13 | 109 | 1.6 | 4.8 | 0.00 | 0.00 | 0.00 | 68 | 1010.9 |
| 20260509110801 | 13 | 111 | 1.6 | 4.8 | 0.00 | 0.00 | 0.00 | 68 | 1011.0 |
| 20260509110300 | 13 | 205 | 1.6 | 11.3 | 0.00 | 0.00 | 0.00 | 67 | 1011.0 |
| 20260509105757 | 13 | 188 | 1.6 | 11.3 | 0.00 | 0.00 | 0.00 | 67 | 1011.0 |
| 20260509105259 | 12 | 169 | 1.6 | 3.2 | 0.00 | 0.00 | 0.00 | 66 | 1011.0 |
| 20260509105016 | 12 | 173 | 1.6 | 4.8 | 0.00 | 0.00 | 0.00 | 66 | 1010.9 |
| 20260509104258 | 12 | 119 | 1.6 | 8.0 | 0.00 | 0.00 | 0.00 | 66 | 1011.0 |
| 20260509103757 | 13 | 156 | 0.0 | 8.0 | 0.00 | 0.00 | 0.00 | 66 | 1011.0 |
| 20260509103255 | 13 | 157 | 0.0 | 4.8 | 0.00 | 0.00 | 0.00 | 66 | 1010.9 |
| 20260509102754 | 13 | 205 | 0.0 | 3.2 | 0.00 | 0.00 | 0.00 | 66 | 1010.9 |
| 20260509102253 | 13 | 143 | 0.0 | 3.2 | 0.00 | 0.00 | 0.00 | 66 | 1010.8 |
| 20260509101753 | 13 | 112 | 0.0 | 1.6 | 0.00 | 0.00 | 0.00 | 66 | 1010.9 |
| 20260509101254 | 13 | 106 | 1.6 | 4.8 | 0.00 | 0.00 | 0.00 | 66 | 1010.9 |
| 20260509101016 | 13 | 115 | 1.6 | 4.8 | 0.00 | 0.00 | 0.00 | 65 | 1010.8 |
| 20260509100513 | 13 | 171 | 1.6 | 6.4 | 0.00 | 0.00 | 0.00 | 66 | 1010.7 |
| 20260509100016 | 13 | 155 | 1.6 | 12.9 | 0.00 | 0.00 | 0.00 | 65 | 1010.7 |
| 20260509095248 | 13 | 112 | 1.6 | 12.9 | 0.00 | 0.00 | 0.00 | 65 | 1010.7 |
| 20260509094742 | 12 | 184 | 1.6 | 6.4 | 0.00 | 0.00 | 0.00 | 64 | 1010.7 |
| 20260509094236 | 12 | 228 | 1.6 | 12.9 | 0.00 | 0.00 | 0.00 | 65 | 1010.8 |
| 20260509093730 | 12 | 256 | 1.6 | 12.9 | 0.00 | 0.00 | 0.00 | 65 | 1010.7 |
| 20260509093231 | 12 | 230 | 1.6 | 8.0 | 0.00 | 0.00 | 0.00 | 65 | 1010.7 |
| 20260509092949 | 12 | 211 | 1.6 | 6.4 | 0.00 | 0.00 | 0.00 | 66 | 1010.8 |
| 20260509092230 | 12 | 244 | 1.6 | 4.8 | 0.00 | 0.00 | 0.00 | 66 | 1010.7 |
| 20260509091730 | 12 | 248 | 1.6 | 9.7 | 0.00 | 0.00 | 0.00 | 66 | 1010.9 |
| 20260509091716 | 12 | 209 | 1.6 | 9.7 | 0.00 | 0.00 | 0.00 | 66 | 1010.9 |
| 20260509090727 | 12 | 218 | 1.6 | 4.8 | 0.00 | 0.00 | 0.00 | 65 | 1011.0 |
| 20260509090227 | 12 | 251 | 1.6 | 8.0 | 0.00 | 0.00 | 0.00 | 66 | 1011.1 |
| 20260509085730 | 12 | 231 | 1.6 | 8.0 | 0.00 | 0.00 | 0.00 | 65 | 1011.1 |
| 20260509085452 | 12 | 237 | 1.6 | 8.0 | 0.00 | 0.00 | 0.00 | 66 | 1011.2 |
| 20260509084730 | 12 | 252 | 1.6 | 8.0 | 0.00 | 0.00 | 0.00 | 66 | 1011.3 |
| 20260509084224 | 12 | 302 | 1.6 | 11.3 | 0.00 | 0.00 | 0.00 | 66 | 1011.3 |
| 20260509083726 | 12 | 126 | 1.6 | 11.3 | 0.00 | 0.00 | 0.00 | 65 | 1011.3 |
| 20260509083223 | 12 | 244 | 1.6 | 6.4 | 0.00 | 0.00 | 0.00 | 66 | 1011.4 |
| 20260509082724 | 12 | 207 | 1.6 | 6.4 | 0.00 | 0.00 | 0.00 | 66 | 1011.5 |
| 20260509082223 | 12 | 196 | 1.6 | 4.8 | 0.00 | 0.00 | 0.00 | 66 | 1011.5 |
| 20260509081724 | 12 | 170 | 1.6 | 4.8 | 0.00 | 0.00 | 0.00 | 67 | 1011.6 |
| 20260509081222 | 12 | 259 | 1.6 | 4.8 | 0.00 | 0.00 | 0.00 | 65 | 1011.5 |
| 20260509080722 | 12 | 155 | 1.6 | 4.8 | 0.00 | 0.00 | 0.00 | 66 | 1011.6 |
| 20260509080224 | 12 | 45 | 1.6 | 4.8 | 0.00 | 0.00 | 0.00 | 66 | 1011.7 |
| 20260509075719 | 12 | 348 | 1.6 | 4.8 | 0.00 | 0.00 | 0.00 | 66 | 1011.8 |
| 20260509075444 | 12 | 257 | 1.6 | 4.8 | 0.00 | 0.00 | 0.00 | 66 | 1011.9 |
| 20260509074942 | 12 | 123 | 0.0 | 4.8 | 0.00 | 0.00 | 0.00 | 67 | 1011.9 |
| 20260509074218 | 12 | 211 | 0.0 | 3.2 | 0.00 | 0.00 | 0.00 | 66 | 1011.8 |
| 20260509073719 | 12 | 242 | 1.6 | 6.4 | 0.00 | 0.00 | 0.00 | 66 | 1011.9 |
| 20260509073218 | 12 | 144 | 1.6 | 6.4 | 0.00 | 0.00 | 0.00 | 66 | 1011.9 |
| 20260509072719 | 12 | 254 | 0.0 | 3.2 | 0.00 | 0.00 | 0.00 | 66 | 1011.9 |
| 20260509072220 | 12 | 284 | 0.0 | 4.8 | 0.00 | 0.00 | 0.00 | 67 | 1011.9 |
| 20260509071720 | 12 | 221 | 1.6 | 6.4 | 0.00 | 0.00 | 0.00 | 66 | 1012.0 |
| 20260509071213 | 12 | 138 | 1.6 | 6.4 | 0.00 | 0.00 | 0.00 | 66 | 1011.9 |
| 20260509070932 | 12 | 117 | 0.0 | 3.2 | 0.00 | 0.00 | 0.00 | 67 | 1012.0 |
| 20260509070204 | 12 | 72 | 0.0 | 3.2 | 0.00 | 0.00 | 0.00 | 67 | 1011.9 |
| 20260509065702 | 12 | 72 | 0.0 | 3.2 | 0.00 | 0.00 | 0.00 | 67 | 1011.8 |
| 20260509065656 | 12 | 130 | 0.0 | 3.2 | 0.00 | 0.00 | 0.00 | 67 | 1011.8 |
| 20260509064701 | 12 | 205 | 0.0 | 1.6 | 0.00 | 0.00 | 0.00 | 66 | 1011.8 |
| 20260509064159 | 12 | 205 | 0.0 | 1.6 | 0.00 | 0.00 | 0.00 | 67 | 1011.8 |
| 20260509063924 | 12 | 205 | 0.0 | 3.2 | 0.00 | 0.00 | 0.00 | 66 | 1011.9 |
| 20260509063156 | 12 | 205 | 0.0 | 3.2 | 0.00 | 0.00 | 0.00 | 65 | 1012.0 |
| 20260509062654 | 12 | 276 | 0.0 | 1.6 | 0.00 | 0.00 | 0.00 | 65 | 1012.0 |
| 20260509062417 | 12 | 276 | 0.0 | 1.6 | 0.00 | 0.00 | 0.00 | 64 | 1012.1 |
| 20260509061650 | 12 | 210 | 0.0 | 1.6 | 0.00 | 0.00 | 0.00 | 64 | 1012.1 |
| 20260509061149 | 12 | 240 | 0.0 | 3.2 | 0.00 | 0.00 | 0.00 | 63 | 1012.1 |
| 20260509060648 | 12 | 244 | 0.0 | 3.2 | 0.00 | 0.00 | 0.00 | 63 | 1012.1 |
| 20260509060150 | 12 | 279 | 1.6 | 4.8 | 0.00 | 0.00 | 0.00 | 63 | 1012.1 |
| 20260509055905 | 12 | 142 | 1.6 | 4.8 | 0.00 | 0.00 | 0.00 | 63 | 1012.1 |
| 20260509055147 | 12 | 130 | 0.0 | 4.8 | 0.00 | 0.00 | 0.00 | 63 | 1012.1 |
| 20260509054643 | 13 | 227 | 0.0 | 4.8 | 0.00 | 0.00 | 0.00 | 63 | 1012.0 |
| 20260509054147 | 13 | 229 | 0.0 | 4.8 | 0.00 | 0.00 | 0.00 | 63 | 1012.0 |
| 20260509053642 | 13 | 241 | 0.0 | 4.8 | 0.00 | 0.00 | 0.00 | 62 | 1012.0 |
| 20260509053147 | 13 | 256 | 0.0 | 3.2 | 0.00 | 0.00 | 0.00 | 62 | 1012.1 |
| 20260509052639 | 13 | 212 | 0.0 | 3.2 | 0.00 | 0.00 | 0.00 | 61 | 1012.1 |
| 20260509052132 | 13 | 178 | 0.0 | 3.2 | 0.00 | 0.00 | 0.00 | 62 | 1012.1 |
| 20260509051626 | 13 | 194 | 0.0 | 1.6 | 0.00 | 0.00 | 0.00 | 61 | 1012.1 |
| 20260509051345 | 13 | 209 | 0.0 | 3.2 | 0.00 | 0.00 | 0.00 | 62 | 1012.2 |
| 20260509050614 | 13 | 209 | 0.0 | 4.8 | 0.00 | 0.00 | 0.00 | 60 | 1012.2 |
| 20260509050107 | 13 | 146 | 0.0 | 4.8 | 0.00 | 0.00 | 0.00 | 60 | 1012.0 |
| 20260509045602 | 13 | 192 | 0.0 | 4.8 | 0.00 | 0.00 | 0.00 | 60 | 1012.0 |
| 20260509045056 | 13 | 184 | 0.0 | 3.2 | 0.00 | 0.00 | 0.00 | 60 | 1012.0 |
| 20260509044815 | 13 | 180 | 0.0 | 3.2 | 0.00 | 0.00 | 0.00 | 60 | 1012.0 |
| 20260509044044 | 13 | 248 | 1.6 | 4.8 | 0.00 | 0.00 | 0.00 | 60 | 1012.0 |
| 20260509043803 | 13 | 202 | 1.6 | 6.4 | 0.00 | 0.00 | 0.00 | 59 | 1012.0 |
| 20260509043256 | 13 | 125 | 1.6 | 8.0 | 0.00 | 0.00 | 0.00 | 60 | 1012.0 |
| 20260509042526 | 13 | 176 | 1.6 | 8.0 | 0.00 | 0.00 | 0.00 | 58 | 1012.1 |
| 20260509042020 | 13 | 154 | 1.6 | 9.7 | 0.00 | 0.00 | 0.00 | 58 | 1012.0 |
| 20260509041514 | 13 | 217 | 1.6 | 9.7 | 0.00 | 0.00 | 0.00 | 58 | 1012.0 |
| 20260509041009 | 13 | 244 | 1.6 | 6.4 | 0.00 | 0.00 | 0.00 | 58 | 1012.1 |
| 20260509040722 | 13 | 165 | 0.0 | 4.8 | 0.00 | 0.00 | 0.00 | 60 | 1012.1 |
| 20260509035956 | 13 | 157 | 0.0 | 4.8 | 0.00 | 0.00 | 0.00 | 60 | 1012.1 |
| 20260509035449 | 13 | 183 | 1.6 | 6.4 | 0.00 | 0.00 | 0.00 | 60 | 1012.1 |
| 20260509034943 | 13 | 238 | 1.6 | 6.4 | 0.00 | 0.00 | 0.00 | 59 | 1012.2 |
| 20260509034700 | 13 | 219 | 0.0 | 4.8 | 0.00 | 0.00 | 0.00 | 61 | 1012.2 |
| 20260509033930 | 13 | 257 | 0.0 | 4.8 | 0.00 | 0.00 | 0.00 | 60 | 1012.3 |
| 20260509033914 | 13 | 201 | 0.0 | 6.4 | 0.00 | 0.00 | 0.00 | 60 | 1012.3 |
| 20260509032919 | 14 | 224 | 0.0 | 6.4 | 0.00 | 0.00 | 0.00 | 60 | 1012.4 |
| 20260509032414 | 14 | 229 | 0.0 | 3.2 | 0.00 | 0.00 | 0.00 | 60 | 1012.4 |
| 20260509031906 | 14 | 228 | 0.0 | 3.2 | 0.00 | 0.00 | 0.00 | 61 | 1012.4 |
| 20260509031400 | 14 | 38 | 0.0 | 3.2 | 0.00 | 0.00 | 0.00 | 60 | 1012.4 |
| 20260509030854 | 14 | 244 | 0.0 | 1.6 | 0.00 | 0.00 | 0.00 | 59 | 1012.4 |
| 20260509030349 | 14 | 202 | 0.0 | 3.2 | 0.00 | 0.00 | 0.00 | 60 | 1012.4 |
| 20260509025841 | 14 | 206 | 1.6 | 6.4 | 0.00 | 0.00 | 0.00 | 59 | 1012.4 |
| 20260509025336 | 14 | 246 | 0.0 | 6.4 | 0.00 | 0.00 | 0.00 | 58 | 1012.5 |
| 20260509024829 | 14 | 263 | 0.0 | 4.8 | 0.00 | 0.00 | 0.00 | 61 | 1012.5 |
| 20260509024324 | 14 | 18 | 0.0 | 1.6 | 0.00 | 0.00 | 0.00 | 60 | 1012.5 |
| 20260509023817 | 14 | 331 | 0.0 | 1.6 | 0.00 | 0.00 | 0.00 | 60 | 1012.5 |
| 20260509023311 | 15 | 260 | 0.0 | 3.2 | 0.00 | 0.00 | 0.00 | 59 | 1012.4 |
| 20260509022805 | 15 | 263 | 0.0 | 3.2 | 0.00 | 0.00 | 0.00 | 61 | 1012.4 |
| 20260509022258 | 15 | 16 | 0.0 | 1.6 | 0.00 | 0.00 | 0.00 | 61 | 1012.4 |
| 20260509022017 | 15 | 15 | 0.0 | 1.6 | 0.00 | 0.00 | 0.00 | 59 | 1012.4 |
| 20260509021246 | 15 | 288 | 0.0 | 1.6 | 0.00 | 0.00 | 0.00 | 59 | 1012.4 |
| 20260509020740 | 15 | 288 | 0.0 | 1.6 | 0.00 | 0.00 | 0.00 | 58 | 1012.3 |
| 20260509020235 | 15 | 288 | 0.0 | 1.6 | 0.00 | 0.00 | 0.00 | 56 | 1012.3 |
| 20260509015729 | 15 | 297 | 0.0 | 1.6 | 0.00 | 0.00 | 0.00 | 57 | 1012.3 |
| 20260509015222 | 15 | 295 | 0.0 | 1.6 | 0.00 | 0.00 | 0.00 | 57 | 1012.2 |
| 20260509014718 | 15 | 81 | 0.0 | 1.6 | 0.00 | 0.00 | 0.00 | 56 | 1012.2 |
| 20260509014210 | 15 | 91 | 0.0 | 0.0 | 0.00 | 0.00 | 0.00 | 55 | 1012.2 |
| 20260509013704 | 15 | 91 | 0.0 | 0.0 | 0.00 | 0.00 | 0.00 | 56 | 1012.2 |
| 20260509013159 | 16 | 91 | 0.0 | 0.0 | 0.00 | 0.00 | 0.00 | 56 | 1012.2 |
| 20260509012653 | 16 | 91 | 0.0 | 1.6 | 0.00 | 0.00 | 0.00 | 56 | 1012.2 |
| 20260509012147 | 16 | 91 | 0.0 | 3.2 | 0.00 | 0.00 | 0.00 | 56 | 1012.1 |
| 20260509011641 | 16 | 86 | 0.0 | 3.2 | 0.00 | 0.00 | 0.00 | 54 | 1012.1 |
| 20260509011401 | 16 | 183 | 0.0 | 1.6 | 0.00 | 0.00 | 0.00 | 56 | 1012.1 |
| 20260509010628 | 16 | 187 | 0.0 | 4.8 | 0.00 | 0.00 | 0.00 | 54 | 1012.0 |
| 20260509010122 | 16 | 188 | 0.0 | 4.8 | 0.00 | 0.00 | 0.00 | 53 | 1011.9 |
| 20260509005617 | 16 | 333 | 0.0 | 6.4 | 0.00 | 0.00 | 0.00 | 55 | 1011.9 |
| 20260509005332 | 16 | 231 | 0.0 | 6.4 | 0.00 | 0.00 | 0.00 | 53 | 1011.9 |
| 20260509004605 | 17 | 89 | 0.0 | 4.8 | 0.00 | 0.00 | 0.00 | 54 | 1011.8 |
| 20260509004058 | 17 | 177 | 0.0 | 1.6 | 0.00 | 0.00 | 0.00 | 55 | 1011.8 |
| 20260509003553 | 17 | 185 | 0.0 | 1.6 | 0.00 | 0.00 | 0.00 | 52 | 1011.7 |
| 20260509003046 | 17 | 217 | 0.0 | 1.6 | 0.00 | 0.00 | 0.00 | 53 | 1011.7 |
| 20260509002542 | 18 | 217 | 0.0 | 3.2 | 0.00 | 0.00 | 0.00 | 50 | 1011.7 |
| 20260509002035 | 18 | 225 | 0.0 | 3.2 | 0.00 | 0.00 | 0.00 | 51 | 1011.7 |
| 20260509001528 | 18 | 145 | 0.0 | 0.0 | 0.00 | 0.00 | 0.00 | 49 | 1011.6 |
| 20260509001023 | 18 | 145 | 0.0 | 0.0 | 0.00 | 0.00 | 0.00 | 48 | 1011.6 |
| 20260509000518 | 18 | 145 | 0.0 | 0.0 | 0.00 | 0.00 | 0.00 | 47 | 1011.6 |
| 20260509000234 | 19 | 145 | 0.0 | 0.0 | 0.00 | 0.00 | 0.00 | 47 | 1011.6 |
| 20260508235505 | 19 | 145 | 0.0 | 0.0 | 0.00 | 0.00 | 0.00 | 47 | 1011.6 |
| 20260508234958 | 19 | 145 | 0.0 | 1.6 | 0.00 | 0.00 | 0.00 | 45 | 1011.4 |
| 20260508234452 | 20 | 145 | 0.0 | 1.6 | 0.00 | 0.00 | 0.00 | 45 | 1011.4 |
| 20260508233947 | 20 | 130 | 0.0 | 0.0 | 0.00 | 0.00 | 0.00 | 45 | 1011.4 |
| 20260508233441 | 20 | 130 | 0.0 | 0.0 | 0.00 | 0.00 | 0.00 | 45 | 1011.4 |
| 20260508232935 | 20 | 130 | 0.0 | 0.0 | 0.00 | 0.00 | 0.00 | 46 | 1011.4 |
| 20260508232428 | 20 | 130 | 0.0 | 1.6 | 0.00 | 0.00 | 0.00 | 44 | 1011.4 |
| 20260508231922 | 20 | 130 | 0.0 | 1.6 | 0.00 | 0.00 | 0.00 | 43 | 1011.4 |
| 20260508231416 | 20 | 311 | 0.0 | 1.6 | 0.00 | 0.00 | 0.00 | 42 | 1011.3 |
| 20260508230912 | 20 | 253 | 0.0 | 4.8 | 0.00 | 0.00 | 0.00 | 43 | 1011.3 |
| 20260508230634 | 20 | 253 | 1.6 | 4.8 | 0.00 | 0.00 | 0.00 | 43 | 1011.1 |
| 20260508225859 | 20 | 126 | 1.6 | 6.4 | 0.00 | 0.00 | 0.00 | 42 | 1011.1 |
| 20260508225619 | 20 | 207 | 1.6 | 6.4 | 0.00 | 0.00 | 0.00 | 39 | 1011.1 |
| 20260508224846 | 20 | 98 | 1.6 | 6.4 | 0.00 | 0.00 | 0.00 | 39 | 1011.1 |
| 20260508224605 | 20 | 246 | 1.6 | 6.4 | 0.00 | 0.00 | 0.00 | 39 | 1011.0 |
| 20260508223836 | 20 | 245 | 1.6 | 4.8 | 0.00 | 0.00 | 0.00 | 37 | 1011.1 |
| 20260508223328 | 20 | 267 | 3.2 | 9.7 | 0.00 | 0.00 | 0.00 | 36 | 1011.0 |
| 20260508222823 | 20 | 138 | 3.2 | 12.9 | 0.00 | 0.00 | 0.00 | 36 | 1011.1 |
| 20260508222318 | 20 | 244 | 3.2 | 12.9 | 0.00 | 0.00 | 0.00 | 37 | 1011.1 |
| 20260508221812 | 20 | 250 | 1.6 | 4.8 | 0.00 | 0.00 | 0.00 | 39 | 1011.1 |
| 20260508221304 | 20 | 73 | 1.6 | 4.8 | 0.00 | 0.00 | 0.00 | 44 | 1011.1 |
| 20260508220758 | 20 | 22 | 1.6 | 4.8 | 0.00 | 0.00 | 0.00 | 38 | 1011.1 |
| 20260508220252 | 21 | 114 | 1.6 | 3.2 | 0.00 | 0.00 | 0.00 | 40 | 1011.1 |
| 20260508215747 | 21 | 217 | 1.6 | 6.4 | 0.00 | 0.00 | 0.00 | 40 | 1011.2 |
| 20260508215242 | 21 | 130 | 1.6 | 6.4 | 0.00 | 0.00 | 0.00 | 38 | 1011.3 |
| 20260508214742 | 20 | 180 | 1.6 | 4.8 | 0.00 | 0.00 | 0.00 | 39 | 1011.3 |
| 20260508214242 | 20 | 131 | 1.6 | 9.7 | 0.00 | 0.00 | 0.00 | 37 | 1011.3 |
| 20260508213740 | 21 | 82 | 1.6 | 9.7 | 0.00 | 0.00 | 0.00 | 38 | 1011.3 |
| 20260508213239 | 21 | 211 | 1.6 | 8.0 | 0.00 | 0.00 | 0.00 | 35 | 1011.3 |
| 20260508212738 | 21 | 227 | 1.6 | 9.7 | 0.00 | 0.00 | 0.00 | 35 | 1011.3 |
| 20260508212238 | 21 | 242 | 1.6 | 9.7 | 0.00 | 0.00 | 0.00 | 35 | 1011.3 |
| 20260508211739 | 21 | 58 | 1.6 | 4.8 | 0.00 | 0.00 | 0.00 | 36 | 1011.3 |
| 20260508211236 | 21 | 186 | 1.6 | 6.4 | 0.00 | 0.00 | 0.00 | 34 | 1011.2 |
| 20260508210737 | 21 | 136 | 3.2 | 8.0 | 0.00 | 0.00 | 0.00 | 35 | 1011.3 |
| 20260508210234 | 22 | 124 | 3.2 | 8.0 | 0.00 | 0.00 | 0.00 | 35 | 1011.4 |
| 20260508205735 | 21 | 292 | 1.6 | 8.0 | 0.00 | 0.00 | 0.00 | 32 | 1011.5 |
| 20260508205233 | 22 | 232 | 1.6 | 9.7 | 0.00 | 0.00 | 0.00 | 31 | 1011.4 |
| 20260508204957 | 22 | 246 | 3.2 | 9.7 | 0.00 | 0.00 | 0.00 | 32 | 1011.4 |
| 20260508204230 | 22 | 286 | 3.2 | 12.9 | 0.00 | 0.00 | 0.00 | 30 | 1011.4 |
| 20260508203733 | 22 | 115 | 3.2 | 12.9 | 0.00 | 0.00 | 0.00 | 31 | 1011.4 |
| 20260508203231 | 22 | 198 | 3.2 | 12.9 | 0.00 | 0.00 | 0.00 | 30 | 1011.5 |
| 20260508202730 | 23 | 57 | 1.6 | 12.9 | 0.00 | 0.00 | 0.00 | 35 | 1011.6 |
| 20260508202231 | 23 | 281 | 1.6 | 11.3 | 0.00 | 0.00 | 0.00 | 30 | 1011.6 |
| 20260508201730 | 22 | 244 | 3.2 | 11.3 | 0.00 | 0.00 | 0.00 | 31 | 1011.5 |
| 20260508201231 | 23 | 57 | 3.2 | 8.0 | 0.00 | 0.00 | 0.00 | 31 | 1011.6 |
| 20260508200730 | 22 | 281 | 3.2 | 9.7 | 0.00 | 0.00 | 0.00 | 35 | 1011.7 |
| 20260508200231 | 23 | 229 | 1.6 | 9.7 | 0.00 | 0.00 | 0.00 | 30 | 1011.8 |
| 20260508195726 | 23 | 282 | 1.6 | 9.7 | 0.00 | 0.00 | 0.00 | 30 | 1011.9 |
| 20260508195227 | 23 | 139 | 3.2 | 9.7 | 0.00 | 0.00 | 0.00 | 30 | 1012.0 |
| 20260508194727 | 22 | 63 | 3.2 | 12.9 | 0.00 | 0.00 | 0.00 | 31 | 1012.0 |
| 20260508194452 | 22 | 221 | 3.2 | 12.9 | 0.00 | 0.00 | 0.00 | 31 | 1012.2 |
| 20260508193946 | 22 | 62 | 3.2 | 9.7 | 0.00 | 0.00 | 0.00 | 33 | 1012.2 |
| 20260508193226 | 23 | 62 | 3.2 | 12.9 | 0.00 | 0.00 | 0.00 | 34 | 1012.2 |
| 20260508192725 | 23 | 219 | 3.2 | 12.9 | 0.00 | 0.00 | 0.00 | 31 | 1012.4 |
| 20260508192226 | 22 | 40 | 3.2 | 14.5 | 0.00 | 0.00 | 0.00 | 33 | 1012.4 |
| 20260508191947 | 22 | 355 | 3.2 | 14.5 | 0.00 | 0.00 | 0.00 | 30 | 1012.4 |
| 20260508191226 | 23 | 325 | 3.2 | 14.5 | 0.00 | 0.00 | 0.00 | 30 | 1012.4 |
| 20260508190728 | 23 | 133 | 1.6 | 8.0 | 0.00 | 0.00 | 0.00 | 34 | 1012.5 |
| 20260508190715 | 22 | 303 | 3.2 | 12.9 | 0.00 | 0.00 | 0.00 | 33 | 1012.6 |
| 20260508185726 | 22 | 282 | 3.2 | 12.9 | 0.00 | 0.00 | 0.00 | 31 | 1012.8 |
| 20260508185226 | 22 | 231 | 3.2 | 12.9 | 0.00 | 0.00 | 0.00 | 33 | 1012.8 |
| 20260508184725 | 22 | 272 | 3.2 | 12.9 | 0.00 | 0.00 | 0.00 | 33 | 1013.0 |
| 20260508184221 | 22 | 274 | 3.2 | 14.5 | 0.00 | 0.00 | 0.00 | 32 | 1013.2 |
| 20260508183723 | 22 | 241 | 3.2 | 14.5 | 0.00 | 0.00 | 0.00 | 33 | 1013.4 |
| 20260508183219 | 22 | 276 | 3.2 | 14.5 | 0.00 | 0.00 | 0.00 | 36 | 1013.5 |
| 20260508182943 | 22 | 259 | 3.2 | 11.3 | 0.00 | 0.00 | 0.00 | 35 | 1013.4 |
| 20260508182221 | 22 | 52 | 1.6 | 11.3 | 0.00 | 0.00 | 0.00 | 34 | 1013.4 |
| 20260508181720 | 22 | 230 | 1.6 | 9.7 | 0.00 | 0.00 | 0.00 | 34 | 1013.2 |
| 20260508181221 | 22 | 238 | 3.2 | 12.9 | 0.00 | 0.00 | 0.00 | 36 | 1013.5 |
| 20260508180720 | 22 | 73 | 3.2 | 12.9 | 0.00 | 0.00 | 0.00 | 34 | 1013.6 |
| 20260508180215 | 21 | 147 | 3.2 | 11.3 | 0.00 | 0.00 | 0.00 | 36 | 1013.7 |
| 20260508175716 | 21 | 147 | 3.2 | 11.3 | 0.00 | 0.00 | 0.00 | 36 | 1013.8 |
| 20260508175218 | 22 | 289 | 3.2 | 11.3 | 0.00 | 0.00 | 0.00 | 37 | 1013.9 |
| 20260508174715 | 21 | 115 | 4.8 | 16.1 | 0.00 | 0.00 | 0.00 | 37 | 1013.8 |
| 20260508174212 | 21 | 202 | 4.8 | 16.1 | 0.00 | 0.00 | 0.00 | 37 | 1014.0 |
| 20260508173711 | 22 | 317 | 3.2 | 9.7 | 0.00 | 0.00 | 0.00 | 34 | 1013.9 |
| 20260508173209 | 21 | 46 | 1.6 | 11.3 | 0.00 | 0.00 | 0.00 | 37 | 1013.9 |
| 20260508172708 | 21 | 209 | 1.6 | 11.3 | 0.00 | 0.00 | 0.00 | 35 | 1014.0 |
| 20260508172207 | 22 | 153 | 3.2 | 12.9 | 0.00 | 0.00 | 0.00 | 37 | 1014.0 |
| 20260508171709 | 21 | 211 | 3.2 | 12.9 | 0.00 | 0.00 | 0.00 | 36 | 1014.1 |
| 20260508171208 | 20 | 204 | 3.2 | 12.9 | 0.00 | 0.00 | 0.00 | 37 | 1014.2 |
| 20260508170705 | 21 | 304 | 3.2 | 12.9 | 0.00 | 0.00 | 0.00 | 38 | 1014.2 |
| 20260508170207 | 20 | 219 | 3.2 | 12.9 | 0.00 | 0.00 | 0.00 | 34 | 1014.3 |
| 20260508165704 | 20 | 310 | 3.2 | 14.5 | 0.00 | 0.00 | 0.00 | 38 | 1014.3 |
| 20260508165205 | 20 | 325 | 3.2 | 14.5 | 0.00 | 0.00 | 0.00 | 37 | 1014.5 |
| 20260508164705 | 20 | 248 | 3.2 | 9.7 | 0.00 | 0.00 | 0.00 | 37 | 1014.4 |
| 20260508164203 | 20 | 17 | 3.2 | 14.5 | 0.00 | 0.00 | 0.00 | 37 | 1014.7 |
| 20260508163923 | 20 | 257 | 3.2 | 14.5 | 0.00 | 0.00 | 0.00 | 37 | 1014.6 |
| 20260508163204 | 20 | 340 | 3.2 | 12.9 | 0.00 | 0.00 | 0.00 | 38 | 1014.8 |
| 20260508162658 | 19 | 304 | 3.2 | 12.9 | 0.00 | 0.00 | 0.00 | 40 | 1014.9 |
| 20260508162422 | 19 | 25 | 4.8 | 12.9 | 0.00 | 0.00 | 0.00 | 39 | 1015.0 |
| 20260508161645 | 19 | 265 | 3.2 | 12.9 | 0.00 | 0.00 | 0.00 | 40 | 1015.0 |
| 20260508161139 | 18 | 213 | 3.2 | 9.7 | 0.00 | 0.00 | 0.00 | 43 | 1015.1 |
| 20260508160634 | 19 | 0 | 3.2 | 12.9 | 0.00 | 0.00 | 0.00 | 39 | 1015.1 |
| 20260508160128 | 18 | 53 | 4.8 | 12.9 | 0.00 | 0.00 | 0.00 | 40 | 1015.3 |
| 20260508155622 | 18 | 196 | 3.2 | 12.9 | 0.00 | 0.00 | 0.00 | 41 | 1015.2 |
| 20260508155603 | 18 | 331 | 3.2 | 12.9 | 0.00 | 0.00 | 0.00 | 40 | 1015.3 |
| 20260508154611 | 18 | 299 | 3.2 | 8.0 | 0.00 | 0.00 | 0.00 | 40 | 1015.3 |
| 20260508154106 | 18 | 355 | 3.2 | 9.7 | 0.00 | 0.00 | 0.00 | 42 | 1015.5 |
| 20260508153558 | 18 | 5 | 3.2 | 12.9 | 0.00 | 0.00 | 0.00 | 40 | 1015.4 |
| 20260508153052 | 18 | 275 | 3.2 | 12.9 | 0.00 | 0.00 | 0.00 | 42 | 1015.5 |
| 20260508152547 | 17 | 42 | 3.2 | 12.9 | 0.00 | 0.00 | 0.00 | 45 | 1015.5 |
| 20260508152040 | 17 | 252 | 4.8 | 12.9 | 0.00 | 0.00 | 0.00 | 43 | 1015.6 |
| 20260508151535 | 17 | 67 | 3.2 | 12.9 | 0.00 | 0.00 | 0.00 | 43 | 1015.5 |
| 20260508151029 | 17 | 135 | 1.6 | 11.3 | 0.00 | 0.00 | 0.00 | 47 | 1015.6 |